sat.trackr.live / text

‹ back to catalog

ERMIS-1

NORAD 68468 · 2026-067BE

PAYLOAD ACTIVE UNKNOWN

§ Identity

Operator
Country
GREC
Launch date
2026-03-30
Launch site
AFWTR
Launch vehicle
Mass (kg)
RCS (m²)

External: N2YO · Heavens-Above · Gunter

§ Orbital elements

Epoch: 2026-09-20T03:42:04.963104Z

Period
94.80 min
Inclination
97.4641°
Eccentricity
0.0008794
Mean motion
15.19022289 rev/d
Perigee alt
502.7 km
Apogee alt
514.9 km
Semi-major
6,886.9 km
B*
2.9259e-4
RAAN
220.2148°
Arg perigee
86.4720°
Mean anomaly
273.7520°
Rev number
2,634

§ Raw data

ERMIS-11 68468U 26067BE  26263.15422411  .00006065  00000+0  29259-3 0  99982 68468  97.4641 220.2148 0008794  86.4720 273.7520 15.19022289 26349

JSON: /api/v1/satellites/68468 · /tle

For live sub-satellite position, see the globe view (requires WebGL).

§ Visibility from observer

Set your observer location to see the next 7 days of passes ≥ 10°. The values pass through the URL so the page stays shareable.

No JS? Fill the form by hand. The geolocation button needs JavaScript.

§ Radio — SatNOGS DB

ModeDescriptionDownlinkUplink
FM Mode S - Transmitter 2.218 GHz
FSK AX.100 Mode 5 Mode U - Transmitter 401.550 MHz

2 transmitters · refreshed weekly from db.satnogs.org